MED324 LEZL-LPPT

Flight info

Callsign MED324
Flight time 0h 39m
Altitude 21000
Route SANTA UM744 ROSAL EXONA UPULO
Aircraft A321/M-SDE3FGHIRWY/LB1

Departure

Time 2026-04-14 14:16
Airport Seville Airport (LEZL)

Arrival

Time 2026-04-14 14:55
Airport Lisbon Humberto Delgado Airport (LPPT)
Time Latitude Longitude Altitude Speed Heading
2026-04-14 14:15 37.41800 -5.87477 120 ft 0 kts 270°
2026-04-14 14:16 37.41799 -5.87873 120 ft 100 kts 270°
2026-04-14 14:16 37.41809 -5.89287 299 ft 212 kts 274°
2026-04-14 14:16 37.42288 -5.91432 1009 ft 306 kts 293°
2026-04-14 14:17 37.45534 -5.97329 2326 ft 497 kts 308°
2026-04-14 14:17 37.47724 -6.00664 2877 ft 442 kts 310°
2026-04-14 14:17 37.49584 -6.03337 3372 ft 377 kts 311°
2026-04-14 14:17 37.51230 -6.05596 3874 ft 329 kts 313°
2026-04-14 14:18 37.52759 -6.07649 4419 ft 315 kts 313°
2026-04-14 14:18 37.54251 -6.09671 4971 ft 311 kts 313°
2026-04-14 14:18 37.55696 -6.11693 5523 ft 308 kts 311°
2026-04-14 14:18 37.57070 -6.13694 6063 ft 306 kts 309°
2026-04-14 14:19 37.58466 -6.15811 6629 ft 305 kts 307°
2026-04-14 14:19 37.59785 -6.17894 7178 ft 305 kts 306°
2026-04-14 14:19 37.61079 -6.20005 7727 ft 305 kts 305°
2026-04-14 14:19 37.62358 -6.22143 8277 ft 307 kts 304°
2026-04-14 14:20 37.63651 -6.24336 8835 ft 309 kts 304°
2026-04-14 14:20 37.64915 -6.26549 9389 ft 310 kts 303°
2026-04-14 14:20 37.66114 -6.28830 9943 ft 312 kts 301°
2026-04-14 14:20 37.67278 -6.31183 10499 ft 314 kts 300°
2026-04-14 14:21 37.68417 -6.33577 11056 ft 317 kts 298°
2026-04-14 14:21 37.69528 -6.35976 11605 ft 319 kts 298°
2026-04-14 14:21 37.70639 -6.38413 12158 ft 321 kts 298°
2026-04-14 14:21 37.71753 -6.40887 12712 ft 324 kts 297°
2026-04-14 14:22 37.72871 -6.43385 13267 ft 326 kts 297°
2026-04-14 14:22 37.73993 -6.45905 13822 ft 329 kts 297°
2026-04-14 14:22 37.75143 -6.48496 14387 ft 332 kts 297°
2026-04-14 14:22 37.76274 -6.51048 14938 ft 334 kts 297°
2026-04-14 14:23 37.77428 -6.53657 15497 ft 337 kts 297°
2026-04-14 14:23 37.78585 -6.56278 16054 ft 340 kts 297°
2026-04-14 14:23 37.79742 -6.58898 16607 ft 342 kts 297°
2026-04-14 14:23 37.80912 -6.61553 17162 ft 345 kts 297°
2026-04-14 14:24 37.82085 -6.64215 17713 ft 348 kts 297°
2026-04-14 14:24 37.83269 -6.66904 18266 ft 351 kts 297°
2026-04-14 14:24 37.84478 -6.69655 18827 ft 353 kts 297°
2026-04-14 14:24 37.85672 -6.72371 19376 ft 356 kts 297°
2026-04-14 14:25 37.86879 -6.75120 19838 ft 362 kts 297°
2026-04-14 14:25 37.88120 -6.77952 19960 ft 368 kts 297°
2026-04-14 14:25 37.89360 -6.80781 19999 ft 369 kts 297°
2026-04-14 14:25 37.90603 -6.83619 20001 ft 369 kts 297°
2026-04-14 14:26 37.91852 -6.86471 20000 ft 369 kts 297°
2026-04-14 14:26 37.93101 -6.89325 20000 ft 369 kts 297°
2026-04-14 14:26 37.94356 -6.92199 20000 ft 369 kts 297°
2026-04-14 14:26 37.95595 -6.95036 20000 ft 369 kts 297°
2026-04-14 14:27 37.96430 -6.96952 20000 ft 369 kts 297°
2026-04-14 14:27 37.97681 -6.99823 20000 ft 369 kts 297°
2026-04-14 14:27 37.98911 -7.02652 20000 ft 369 kts 297°
2026-04-14 14:27 38.00151 -7.05579 19996 ft 369 kts 295°
2026-04-14 14:28 38.00878 -7.08684 20005 ft 367 kts 280°
2026-04-14 14:28 38.01516 -7.11829 19999 ft 370 kts 289°
2026-04-14 14:28 38.02788 -7.14677 20013 ft 373 kts 301°
2026-04-14 14:28 38.04025 -7.17585 20010 ft 372 kts 294°
2026-04-14 14:29 38.05009 -7.20532 20005 ft 371 kts 290°
2026-04-14 14:29 38.05947 -7.23694 20002 ft 370 kts 289°
2026-04-14 14:29 38.06818 -7.26816 20000 ft 369 kts 288°
2026-04-14 14:29 38.07654 -7.29900 20000 ft 368 kts 288°
2026-04-14 14:30 38.08463 -7.33017 20000 ft 368 kts 286°
2026-04-14 14:30 38.09195 -7.36109 20000 ft 368 kts 285°
2026-04-14 14:30 38.09900 -7.39240 20000 ft 367 kts 285°
2026-04-14 14:30 38.10591 -7.42380 20000 ft 367 kts 284°
2026-04-14 14:31 38.11273 -7.45516 20000 ft 367 kts 284°
2026-04-14 14:31 38.11960 -7.48698 20000 ft 367 kts 284°
2026-04-14 14:31 38.12618 -7.51758 20000 ft 367 kts 284°
2026-04-14 14:31 38.13289 -7.54881 20000 ft 367 kts 284°
2026-04-14 14:32 38.13955 -7.57985 20000 ft 367 kts 284°
2026-04-14 14:32 38.14626 -7.61119 20000 ft 367 kts 284°
2026-04-14 14:32 38.15302 -7.64277 20000 ft 367 kts 284°
2026-04-14 14:32 38.15972 -7.67407 20000 ft 367 kts 284°
2026-04-14 14:33 38.16658 -7.70559 20000 ft 367 kts 285°
2026-04-14 14:33 38.17354 -7.73686 20000 ft 367 kts 284°
2026-04-14 14:33 38.18043 -7.76856 20000 ft 367 kts 284°
2026-04-14 14:33 38.18716 -7.79983 20000 ft 367 kts 284°
2026-04-14 14:34 38.20253 -7.86324 20000 ft 368 kts 287°
2026-04-14 14:34 38.21028 -7.89450 20000 ft 367 kts 286°
2026-04-14 14:34 38.21764 -7.92549 19996 ft 358 kts 285°
2026-04-14 14:35 38.22472 -7.95589 19995 ft 348 kts 285°
2026-04-14 14:35 38.23148 -7.98518 19996 ft 342 kts 285°
2026-04-14 14:35 38.23808 -8.01391 19997 ft 338 kts 285°
2026-04-14 14:35 38.24462 -8.04241 19998 ft 336 kts 285°
2026-04-14 14:36 38.25124 -8.07132 19999 ft 334 kts 285°
2026-04-14 14:36 38.25773 -8.09970 19999 ft 333 kts 285°
2026-04-14 14:36 38.26417 -8.12786 20000 ft 333 kts 285°
2026-04-14 14:36 38.27063 -8.15613 20000 ft 332 kts 285°
2026-04-14 14:37 38.27706 -8.18431 19921 ft 334 kts 285°
2026-04-14 14:37 38.28360 -8.21298 19585 ft 336 kts 285°
2026-04-14 14:37 38.29015 -8.24173 19006 ft 329 kts 285°
2026-04-14 14:37 38.29635 -8.26857 18385 ft 307 kts 285°
2026-04-14 14:38 38.30239 -8.29465 17769 ft 298 kts 285°
2026-04-14 14:38 38.30813 -8.31961 17169 ft 293 kts 285°
2026-04-14 14:38 38.31380 -8.34433 16568 ft 289 kts 285°
2026-04-14 14:38 38.31944 -8.36894 15962 ft 286 kts 285°
2026-04-14 14:39 38.32310 -8.38493 15565 ft 284 kts 285°
2026-04-14 14:39 38.33044 -8.41703 14760 ft 280 kts 285°
2026-04-14 14:39 38.33408 -8.43295 14356 ft 278 kts 285°
2026-04-14 14:39 38.33949 -8.45663 13751 ft 275 kts 285°
2026-04-14 14:40 38.34478 -8.47978 13153 ft 272 kts 285°
2026-04-14 14:40 38.34976 -8.50138 12590 ft 270 kts 285°
2026-04-14 14:40 38.35538 -8.52417 11988 ft 268 kts 286°
2026-04-14 14:40 38.36113 -8.54673 11384 ft 265 kts 287°
2026-04-14 14:41 38.36678 -8.56860 11068 ft 255 kts 287°
2026-04-14 14:41 38.37247 -8.59046 11016 ft 254 kts 287°
2026-04-14 14:41 38.37801 -8.61179 10668 ft 260 kts 287°
2026-04-14 14:41 38.38368 -8.63363 10290 ft 258 kts 287°
2026-04-14 14:42 38.38917 -8.65478 9920 ft 257 kts 287°
2026-04-14 14:42 38.39493 -8.67696 9530 ft 255 kts 287°
2026-04-14 14:42 38.40042 -8.69812 9145 ft 248 kts 287°
2026-04-14 14:42 38.40585 -8.71903 8761 ft 245 kts 287°
2026-04-14 14:43 38.41122 -8.73948 8381 ft 242 kts 288°
2026-04-14 14:43 38.41709 -8.75986 7996 ft 241 kts 289°
2026-04-14 14:43 38.41794 -8.76271 7942 ft 240 kts 289°
2026-04-14 14:43 38.42370 -8.78264 7562 ft 239 kts 288°
2026-04-14 14:44 38.42910 -8.80268 7181 ft 237 kts 287°
2026-04-14 14:44 38.43433 -8.82259 6800 ft 235 kts 287°
2026-04-14 14:44 38.43952 -8.84252 6417 ft 234 kts 287°
2026-04-14 14:44 38.44457 -8.86236 6034 ft 233 kts 287°
2026-04-14 14:45 38.44943 -8.88228 5649 ft 233 kts 287°
2026-04-14 14:45 38.45404 -8.90195 5271 ft 233 kts 287°
2026-04-14 14:45 38.45860 -8.92212 4885 ft 234 kts 287°
2026-04-14 14:45 38.46305 -8.94221 4503 ft 235 kts 287°
2026-04-14 14:46 38.46747 -8.96225 4125 ft 236 kts 287°
2026-04-14 14:46 38.47220 -8.98249 3844 ft 233 kts 288°
2026-04-14 14:46 38.47741 -9.00246 3744 ft 235 kts 289°
2026-04-14 14:46 38.48271 -9.02206 3716 ft 236 kts 289°
2026-04-14 14:47 38.48818 -9.04207 3708 ft 237 kts 290°
2026-04-14 14:47 38.49365 -9.06198 3696 ft 229 kts 290°
2026-04-14 14:47 38.49875 -9.08052 3697 ft 221 kts 290°
2026-04-14 14:47 38.50382 -9.09898 3699 ft 216 kts 290°
2026-04-14 14:48 38.50875 -9.11695 3697 ft 211 kts 290°
2026-04-14 14:48 38.51356 -9.13446 3765 ft 204 kts 290°
2026-04-14 14:48 38.51821 -9.15146 3703 ft 200 kts 289°
2026-04-14 14:48 38.52281 -9.16816 3698 ft 194 kts 290°
2026-04-14 14:49 38.52728 -9.18435 3700 ft 191 kts 290°
2026-04-14 14:49 38.53285 -9.19971 3673 ft 191 kts 303°
2026-04-14 14:49 38.54217 -9.21145 3714 ft 192 kts 322°
2026-04-14 14:49 38.55372 -9.22060 3718 ft 192 kts 330°
2026-04-14 14:50 38.56525 -9.22871 3704 ft 191 kts 332°
2026-04-14 14:50 38.57779 -9.23491 3708 ft 189 kts 342°
2026-04-14 14:50 38.59054 -9.23858 3675 ft 190 kts 356°
2026-04-14 14:50 38.60344 -9.23448 3730 ft 185 kts 22°
2026-04-14 14:51 38.61457 -9.22672 3555 ft 184 kts 30°
2026-04-14 14:51 38.62548 -9.21875 3265 ft 176 kts 28°
2026-04-14 14:51 38.63612 -9.21216 3014 ft 166 kts 24°
2026-04-14 14:51 38.64659 -9.20667 2795 ft 160 kts 21°
2026-04-14 14:52 38.65688 -9.20165 2605 ft 157 kts 21°
2026-04-14 14:52 38.66711 -9.19663 2423 ft 156 kts 21°
2026-04-14 14:52 38.67416 -9.19306 2295 ft 156 kts 21°
2026-04-14 14:52 38.68421 -9.18781 2098 ft 155 kts 22°
2026-04-14 14:53 38.69473 -9.18221 1885 ft 154 kts 22°
2026-04-14 14:53 38.70474 -9.17685 1682 ft 152 kts 22°
2026-04-14 14:53 38.71458 -9.17159 1483 ft 152 kts 22°
2026-04-14 14:53 38.72439 -9.16636 1284 ft 151 kts 22°
2026-04-14 14:54 38.73343 -9.16153 1090 ft 151 kts 22°
2026-04-14 14:54 38.74314 -9.15634 892 ft 150 kts 22°
2026-04-14 14:54 38.75269 -9.15124 692 ft 149 kts 22°
2026-04-14 14:54 38.76241 -9.14605 490 ft 149 kts 22°
2026-04-14 14:55 38.77175 -9.14105 384 ft 145 kts 22°
2026-04-14 14:55 38.77776 -9.13784 383 ft 61 kts 22°
2026-04-14 14:55 38.78158 -9.13579 383 ft 57 kts 23°
2026-04-14 14:55 38.78434 -9.13428 383 ft 19 kts 23°
2026-04-14 14:56 38.78561 -9.13343 383 ft 7 kts 78°
2026-04-14 14:56 38.78568 -9.13268 383 ft 10 kts 80°
2026-04-14 14:56 38.78567 -9.13247 383 ft 2 kts 101°
2026-04-14 14:57 38.78562 -9.13214 383 ft 6 kts 101°
2026-04-14 14:57 38.78559 -9.13198 383 ft 2 kts 112°
2026-04-14 14:57 38.78542 -9.13185 383 ft 4 kts 170°
2026-04-14 14:57 38.78503 -9.13196 383 ft 8 kts 198°
2026-04-14 14:58 38.78441 -9.13226 383 ft 11 kts 202°
2026-04-14 14:58 38.78352 -9.13273 383 ft 15 kts 202°
2026-04-14 14:58 38.78275 -9.13313 383 ft 0 kts 202°
2026-04-14 14:58 38.78266 -9.13317 383 ft 3 kts 202°
2026-04-14 14:59 38.78248 -9.13327 383 ft 5 kts 202°
2026-04-14 14:59 38.78198 -9.13353 383 ft 9 kts 202°